User: anonymous   Login
Location: Unspecified
(0.0000°N, 0.0000°E)
Time: 23:26:52
(UTC+00:00)
Language:

AMGU-1 (AMURSAT) - Orbit

View from above orbital plane
View from above orbital plane
View from above satellite
View from above satellite

Ground track
Ground track

The orbit data is extracted from the following two-line orbital elements,

1 44394U 19038J   21207.87140296  .00001951  00000-0  11151-3 0  9992
2 44394  97.5893 172.1692 0021138 172.8044 187.3494 15.13716513113741
Epoch (UTC): 26 July 2021 20:54:49
Eccentricity: 0.0021138
inclination: 97.5893°
perigee height: 510 km
apogee height: 539 km
right ascension of ascending node: 172.1692°
argument of perigee: 172.8044°
revolutions per day: 15.13716513
mean anomaly at epoch: 187.3494°
orbit number at epoch: 11374

The dashed part of the orbit path shows where the satellite is in the earth's shadow,  

DLR